Tracking 30923 objects as of 1-Jul-2025
HD Live streaming from Space Station
objects crossing your sky now

THOR ABLESTAR DEB

Track THOR ABLESTAR DEB now!
10-day predictions


NORAD ID: 124
Int'l Code: 1961-015J
Perigee: 732.6 km
Apogee: 831.3 km
Inclination: 66.5 °
Period: 100.3 minutes
Semi major axis: 7152 km
RCS: 0.1021 m2 (medium)
Launch date: June 29, 1961
Source: United States (US)
Launch site: AIR FORCE EASTERN TEST RANGE (AFETR)

Note: This is SATELLITE DEBRIS
Your satellite tracking list
USA 7
Track 1 satellite(s)




NASA's NSSDC Master Catalog

Two Line Element Set (TLE):
1 00124U 61015J   25181.16996014  .00000575  00000-0  22602-3 0  9995
2 00124  66.5444  98.6388 0068940  10.0013 350.2439 14.35075468308406
Source of the keplerian elements: AFSPC